Location: Kellogg
(38.0159°N, 90.0546°W)
Time: 12:35:21
(UTC+00:00)

Transit 2A - Pass Details

Date: 21 September 2024
Orbit: 590 x 960 km, 66.7° (Epoch: 11 October)

Event Time Altitude Azimuth Distance (km) Brightness Sun altitude
Rises 21:03:14 0° 153° (SSE) 3,375 9.4 32.3°
Reaches altitude 10° 21:07:04 10° 126° (SE) 2,526 8.5 31.6°
Maximum altitude 21:09:38 13° 100° (E) 2,358 8.2 31.2°
Drops below altitude 10° 21:12:17 10° 74° (ENE) 2,618 8.3 30.7°
Sets 21:16:23 0° 49° (NE) 3,615 9.0 30.0°
